Location: Squirrel Cove
(50.1074°N, 124.9139°W)
Time: 13:11:28
(UTC-07:00)

PCSat - Pass Details

Date: 23 May 2022
Orbit: 784 x 795 km, 67.1° (Epoch: 26 June)

Event Time Altitude Azimuth Distance (km) Brightness Sun altitude
Rises 01:56:27 0° 324° (NW) 3,306 13.5 -18.7°
Reaches altitude 10° 01:59:09 10° 335° (NNW) 2,374 12.8 -18.7°
Maximum altitude 02:03:58 31° 37° (NE) 1,362 11.4 -18.5°
Drops below altitude 10° 02:08:47 10° 100° (E) 2,364 12.1 -18.3°
Sets 02:11:28 0° 110° (ESE) 3,290 12.7 -18.2°
